Tracking 22881 objects as of 19-Apr-2021
HD Live streaming from Space Station
objects crossing your sky now

STARLINK-1926

Track STARLINK-1926 now!
10-day predictions
STARLINK-1926 is classified as:


NORAD ID: 46757
Int'l Code: 2020-074U
Perigee: 553.9 km
Apogee: 554.9 km
Inclination: 53.1 °
Period: 95.6 minutes
Semi major axis: 6925 km
RCS: Unknown
Launch date: October 24, 2020
Source: United States (US)
Launch site: AIR FORCE EASTERN TEST RANGE (AFETR)
aabbcc
Your satellite tracking list
Your tracking list is empty




NASA's NSSDC Master Catalog

Two Line Element Set (TLE):
1 46757U 20074U   21109.17050586 -.00000130  00000-0  10175-4 0  9990
2 46757  53.0552  62.1334 0000725  43.5269 316.5777 15.06396865 27490
Source of the keplerian elements: AFSPC